• In Uzbekistan
  • List of Countries
  • For 7 days
  • Water Temperature
  • Satellite Maps
  • Weather Map
  • Weather Widgets
  • user-avatar
    Login

    Hourly Weather Wiktoria

    Today, 29 April, Saturday

    Time Temperature Precipitation Wind Pressure Humidity
    00:00 +13°C° 0 mm 1 mps 755 mmHg 97%
    01:00 +13°C° 0 mm 1 mps 754 mmHg 98%
    02:00 +13°C° 0 mm 1 mps 754 mmHg 97%
    03:00 +13°C° 0 mm 1 mps 754 mmHg 96%
    04:00 +13°C° 0 mm 1 mps 754 mmHg 95%
    05:00 +13°C° 0 mm 1 mps 754 mmHg 96%
    06:00 +13°C° 0 mm 1 mps 754 mmHg 96%
    07:00 +13°C° 0 mm 1 mps 755 mmHg 97%
    08:00 +14°C° 0 mm 1 mps 755 mmHg 92%
    09:00 +15°C° 0 mm 1 mps 755 mmHg 88%
    10:00 +16°C° 0 mm 1 mps 755 mmHg 83%
    11:00 +16°C° 0 mm 1 mps 755 mmHg 80%
    12:00 +18°C° 0 mm 1 mps 755 mmHg 78%
    13:00 +19°C° 0 mm 1 mps 755 mmHg 75%
    14:00 +19°C° 0 mm 1 mps 754 mmHg 76%
    15:00 +19°C° 0 mm 1 mps 754 mmHg 76%
    16:00 +18°C° 0 mm 1 mps 754 mmHg 77%
    17:00 +16°C° 0 mm 1 mps 754 mmHg 82%
    18:00 +15°C° 0 mm 1 mps 755 mmHg 87%
    19:00 +14°C° 0 mm 1 mps 755 mmHg 92%
    20:00 +14°C° 0 mm 1 mps 755 mmHg 94%
    21:00 +13°C° 0 mm 1 mps 755 mmHg 96%
    22:00 +12°C° 0 mm 1 mps 755 mmHg 98%
    23:00 +12°C° 0 mm 1 mps 755 mmHg 98%

    Tomorrow, 30 April, Sunday

    Time Temperature Precipitation Wind Pressure Humidity
    00:00 +11°C° 0 mm 1 mps 755 mmHg 98%
    01:00 +11°C° 0 mm 1 mps 755 mmHg 98%
    02:00 +11°C° 0 mm 1 mps 755 mmHg 98%
    03:00 +10°C° 0 mm 1 mps 755 mmHg 99%
    04:00 +10°C° 0 mm 1 mps 755 mmHg 99%
    05:00 +9°C° 0 mm 1 mps 755 mmHg 99%
    06:00 +9°C° 0 mm 1 mps 755 mmHg 99%
    07:00 +8°C° 0 mm 0 mps 755 mmHg 99%
    08:00 +10°C° 0 mm 0 mps 755 mmHg 89%
    09:00 +13°C° 0 mm 0 mps 755 mmHg 78%
    10:00 +15°C° 0 mm 0 mps 755 mmHg 68%
    11:00 +16°C° 0 mm 0 mps 755 mmHg 62%
    12:00 +18°C° 0 mm 0 mps 754 mmHg 55%
    13:00 +21°C° 0 mm 1 mps 753 mmHg 49%
    14:00 +21°C° 0 mm 1 mps 753 mmHg 50%
    15:00 +20°C° 0 mm 1 mps 753 mmHg 51%
    16:00 +20°C° 0 mm 1 mps 753 mmHg 52%
    17:00 +18°C° 0 mm 1 mps 753 mmHg 62%
    18:00 +14°C° 0 mm 1 mps 753 mmHg 73%
    19:00 +12°C° 0 mm 1 mps 753 mmHg 84%
    20:00 +11°C° 0 mm 1 mps 753 mmHg 86%
    21:00 +10°C° 0 mm 0 mps 753 mmHg 89%
    22:00 +9°C° 0 mm 0 mps 753 mmHg 91%
    23:00 +9°C° 0 mm 0 mps 753 mmHg 92%

    Day after tomorrow, 1 May, Monday

    Time Temperature Precipitation Wind Pressure Humidity
    00:00 +9°C° 0 mm 0 mps 753 mmHg 93%
    01:00 +9°C° 0 mm 0 mps 752 mmHg 94%
    02:00 +9°C° 0 mm 0 mps 752 mmHg 93%
    03:00 +10°C° 0 mm 0 mps 752 mmHg 91%
    04:00 +11°C° 0 mm 1 mps 751 mmHg 90%
    05:00 +11°C° 0 mm 1 mps 752 mmHg 89%
    06:00 +11°C° 0 mm 1 mps 752 mmHg 88%
    07:00 +12°C° 0 mm 1 mps 752 mmHg 86%
    08:00 +13°C° 0 mm 1 mps 752 mmHg 81%
    09:00 +14°C° 0 mm 1 mps 752 mmHg 76%
    10:00 +15°C° 0 mm 1 mps 752 mmHg 71%
    11:00 +16°C° 0 mm 1 mps 752 mmHg 67%
    12:00 +18°C° 0 mm 1 mps 751 mmHg 64%
    13:00 +19°C° 0 mm 1 mps 751 mmHg 61%
    14:00 +19°C° 0 mm 1 mps 750 mmHg 60%
    15:00 +19°C° 0 mm 1 mps 750 mmHg 60%
    16:00 +20°C° 0 mm 1 mps 750 mmHg 60%
    17:00 +18°C° 0 mm 1 mps 750 mmHg 66%
    18:00 +15°C° 0 mm 1 mps 750 mmHg 73%
    19:00 +14°C° 0 mm 1 mps 750 mmHg 80%
    20:00 +13°C° 0 mm 1 mps 751 mmHg 81%
    21:00 +13°C° 0 mm 1 mps 751 mmHg 81%
    22:00 +13°C° 0 mm 1 mps 751 mmHg 82%
    23:00 +13°C° 0 mm 1 mps 751 mmHg 83%

    2 May, Tuesday

    Time Temperature Precipitation Wind Pressure Humidity
    00:00 +12°C° 0 mm 0 mps 751 mmHg 84%
    01:00 +12°C° 0 mm 0 mps 751 mmHg 86%
    02:00 +12°C° 0 mm 0 mps 751 mmHg 86%
    03:00 +13°C° 0 mm 1 mps 751 mmHg 87%
    04:00 +13°C° 0 mm 1 mps 751 mmHg 88%
    05:00 +12°C° 0 mm 1 mps 751 mmHg 89%
    06:00 +12°C° 0 mm 1 mps 752 mmHg 90%
    07:00 +12°C° 0 mm 1 mps 752 mmHg 92%
    08:00 +12°C° 0 mm 1 mps 752 mmHg 85%
    09:00 +13°C° 0 mm 1 mps 753 mmHg 78%
    10:00 +14°C° 0 mm 2 mps 753 mmHg 71%
    11:00 +15°C° 0 mm 2 mps 753 mmHg 64%
    12:00 +16°C° 0 mm 2 mps 753 mmHg 57%
    13:00 +17°C° 0 mm 2 mps 752 mmHg 50%
    14:00 +17°C° 0 mm 2 mps 752 mmHg 48%
    15:00 +17°C° 0 mm 2 mps 752 mmHg 47%
    16:00 +17°C° 0 mm 2 mps 752 mmHg 45%
    17:00 +16°C° 0 mm 1 mps 753 mmHg 52%
    18:00 +14°C° 0 mm 1 mps 754 mmHg 59%
    19:00 +12°C° 0 mm 1 mps 754 mmHg 65%
    20:00 +12°C° 0 mm 1 mps 755 mmHg 70%
    21:00 +10°C° 0 mm 2 mps 755 mmHg 75%
    22:00 +10°C° 0 mm 2 mps 756 mmHg 80%
    23:00 +10°C° 0 mm 2 mps 756 mmHg 81%

    3 May, Wednesday

    Time Temperature Precipitation Wind Pressure Humidity
    00:00 +10°C° 0 mm 2 mps 756 mmHg 82%
    01:00 +9°C° 0 mm 2 mps 756 mmHg 83%
    02:00 +9°C° 0 mm 2 mps 756 mmHg 81%
    03:00 +9°C° 0 mm 2 mps 756 mmHg 80%
    04:00 +8°C° 0 mm 2 mps 756 mmHg 79%
    05:00 +8°C° 0 mm 2 mps 757 mmHg 78%
    06:00 +8°C° 0 mm 2 mps 757 mmHg 78%
    07:00 +7°C° 0 mm 2 mps 758 mmHg 77%
    08:00 +9°C° 0 mm 2 mps 758 mmHg 70%
    09:00 +10°C° 0 mm 2 mps 758 mmHg 63%
    10:00 +13°C° 0 mm 2 mps 759 mmHg 56%
    11:00 +14°C° 0 mm 2 mps 758 mmHg 52%
    12:00 +16°C° 0 mm 2 mps 758 mmHg 47%
    13:00 +17°C° 0 mm 2 mps 758 mmHg 43%
    14:00 +17°C° 0 mm 2 mps 758 mmHg 44%
    15:00 +17°C° 0 mm 2 mps 758 mmHg 45%
    16:00 +17°C° 0 mm 2 mps 758 mmHg 45%
    17:00 +15°C° 0 mm 2 mps 758 mmHg 52%
    18:00 +14°C° 0 mm 2 mps 759 mmHg 58%
    19:00 +12°C° 0 mm 2 mps 759 mmHg 64%
    20:00 +10°C° 0 mm 2 mps 760 mmHg 68%
    21:00 +11°C° 0 mm 1 mps 760 mmHg 72%
    22:00 +10°C° 0 mm 1 mps 760 mmHg 75%
    23:00 +9°C° 0 mm 1 mps 760 mmHg 78%

    4 May, Thursday

    Time Temperature Precipitation Wind Pressure Humidity
    00:00 +9°C° 0 mm 1 mps 760 mmHg 81%
    01:00 +8°C° 0 mm 1 mps 760 mmHg 84%
    02:00 +8°C° 0 mm 1 mps 760 mmHg 84%
    03:00 +8°C° 0 mm 1 mps 760 mmHg 83%
    04:00 +8°C° 0 mm 1 mps 760 mmHg 83%
    05:00 +8°C° 0 mm 1 mps 760 mmHg 83%
    06:00 +8°C° 0 mm 1 mps 761 mmHg 83%
    07:00 +8°C° 0 mm 1 mps 761 mmHg 84%
    08:00 +10°C° 0 mm 1 mps 761 mmHg 74%
    09:00 +13°C° 0 mm 1 mps 761 mmHg 65%
    10:00 +15°C° 0 mm 1 mps 761 mmHg 55%
    11:00 +18°C° 0 mm 1 mps 761 mmHg 50%
    12:00 +19°C° 0 mm 1 mps 760 mmHg 45%
    13:00 +21°C° 0 mm 1 mps 759 mmHg 40%
    14:00 +21°C° 0 mm 1 mps 759 mmHg 41%
    15:00 +21°C° 0 mm 1 mps 759 mmHg 43%
    16:00 +19°C° 0 mm 0 mps 758 mmHg 44%
    17:00 +16°C° 0 mm 0 mps 759 mmHg 55%
    18:00 +14°C° 0 mm 1 mps 759 mmHg 67%
    19:00 +11°C° 0 mm 1 mps 759 mmHg 78%
    20:00 +11°C° 0 mm 1 mps 759 mmHg 76%
    21:00 +11°C° 0 mm 1 mps 760 mmHg 74%
    22:00 +11°C° 0 mm 1 mps 760 mmHg 72%
    23:00 +11°C° 0 mm 1 mps 760 mmHg 73%
    Show more